Tracking 25195 objects as of 20-Jan-2022
HD Live streaming from Space Station
objects crossing your sky now

HGS 4 (GALAXY 4)

Track HGS 4 (GALAXY 4) now!
HGS 4 (GALAXY 4) is classified as:


NORAD ID: 22694
Int'l Code: 1993-039A
Perigee: 35,752.6 km
Apogee: 35,837.7 km
Inclination: 14.6 °
Period: 1,436.2 minutes
Semi major axis: 42166 km
RCS: 28.88 m2 (large)
Launch date: June 25, 1993
Source: United States (US)
Launch site: FRENCH GUIANA (FRGUI)
aabbcc
Your satellite tracking list
Your tracking list is empty




NASA's NSSDC Master Catalog

Two Line Element Set (TLE):
1 22694U 93039A   22019.47119209 -.00000119  00000-0  00000-0 0  9996
2 22694  14.6254   7.5583 0010090 282.2245  75.8184  1.00266698102857
Source of the keplerian elements: AFSPC